| time (UTC) | temp F | wind direction | speed knots | gust knots | rain 1hr in | rain 24hr in | rain mn in | humidity % | barometer mb |
| 20260903183507 | 57 | 192 | 3.5 | 15.6 | 0.10 | 0.58 | 0.19 | 86 | 1009.5 |
| 20260903183007 | 58 | 214 | 5.2 | 15.6 | 0.05 | 0.53 | 0.14 | 83 | 1009.5 |
| 20260903182507 | 60 | 181 | 7.8 | 15.6 | 0.00 | 0.48 | 0.09 | 82 | 1008.5 |
| 20260903182007 | 60 | 172 | 4.3 | 10.4 | 0.00 | 0.53 | 0.09 | 84 | 1008.5 |
| 20260903180507 | 60 | 161 | 5.2 | 13.0 | 0.00 | 0.53 | 0.09 | 89 | 1008.5 |
| 20260903175507 | 60 | 144 | 5.2 | 11.3 | 0.00 | 0.53 | 0.09 | 91 | 1008.5 |
| 20260903175007 | 60 | 196 | 4.3 | 11.3 | 0.00 | 0.53 | 0.09 | 91 | 1008.5 |
| 20260903174507 | 59 | 146 | 2.6 | 11.3 | 0.00 | 0.53 | 0.09 | 92 | 1008.5 |
| 20260903174006 | 60 | 88 | 4.3 | 11.3 | 0.00 | 0.53 | 0.09 | 93 | 1008.5 |
| 20260903173006 | 58 | 113 | 2.6 | 11.3 | 0.00 | 0.53 | 0.09 | 94 | 1008.5 |
| 20260903172507 | 58 | 98 | 3.5 | 11.3 | 0.00 | 0.53 | 0.09 | 94 | 1008.5 |
| 20260903172006 | 57 | 100 | 1.7 | 7.0 | 0.00 | 0.53 | 0.09 | 94 | 1008.5 |
| 20260903171507 | 57 | 109 | 4.3 | 7.0 | 0.00 | 0.53 | 0.09 | 95 | 1008.5 |
| 20260903171007 | 57 | 113 | 0.9 | 6.1 | 0.00 | 0.53 | 0.09 | 95 | 1009.5 |
| 20260903170506 | 56 | 144 | 0.9 | 6.1 | 0.00 | 0.53 | 0.09 | 95 | 1009.5 |
| 20260903170006 | 56 | 124 | 1.7 | 5.2 | 0.00 | 0.53 | 0.09 | 95 | 1009.5 |
| 20260903165506 | 56 | 138 | 1.7 | 6.1 | 0.00 | 0.53 | 0.09 | 95 | 1009.5 |
| 20260903165006 | 56 | 85 | 0.0 | 6.1 | 0.00 | 0.53 | 0.09 | 95 | 1009.5 |
| 20260903164006 | 56 | 128 | 1.7 | 6.1 | 0.00 | 0.53 | 0.09 | 95 | 1008.5 |
| 20260903163507 | 55 | 161 | 1.7 | 6.1 | 0.00 | 0.53 | 0.09 | 96 | 1008.5 |
| 20260903162507 | 55 | 122 | 1.7 | 4.3 | 0.00 | 0.53 | 0.09 | 96 | 1009.5 |
| 20260903162007 | 55 | 115 | 0.0 | 2.6 | 0.00 | 0.53 | 0.09 | 96 | 1009.5 |
| 20260903161506 | 55 | 85 | 0.0 | 2.6 | 0.00 | 0.53 | 0.09 | 95 | 1009.5 |
| 20260903161006 | 55 | 91 | 0.0 | 0.0 | 0.00 | 0.53 | 0.09 | 95 | 1009.5 |
| 20260903160006 | 54 | 192 | 0.0 | 4.3 | 0.00 | 0.53 | 0.09 | 95 | 1009.5 |
| 20260903155506 | 54 | 153 | 0.0 | 11.3 | 0.00 | 0.53 | 0.09 | 95 | 1009.5 |
| 20260903155006 | 54 | 148 | 3.5 | 11.3 | 0.00 | 0.53 | 0.09 | 95 | 1009.5 |
| 20260903154506 | 54 | 133 | 2.6 | 11.3 | 0.00 | 0.53 | 0.09 | 95 | 1009.5 |
| 20260903154006 | 54 | 135 | 6.1 | 11.3 | 0.00 | 0.53 | 0.09 | 95 | 1009.5 |
| 20260903152506 | 54 | 127 | 7.8 | 13.0 | 0.00 | 0.53 | 0.09 | 95 | 1009.5 |
| 20260903152006 | 54 | 157 | 6.1 | 14.8 | 0.05 | 0.53 | 0.09 | 95 | 1009.5 |
| 20260903151506 | 54 | 142 | 5.2 | 14.8 | 0.05 | 0.53 | 0.09 | 95 | 1009.5 |
| 20260903151006 | 54 | 129 | 6.1 | 18.2 | 0.05 | 0.53 | 0.09 | 95 | 1008.5 |
| 20260903150506 | 54 | 149 | 7.0 | 18.2 | 0.05 | 0.53 | 0.09 | 95 | 1008.5 |
| 20260903150007 | 54 | 146 | 7.8 | 13.0 | 0.05 | 0.53 | 0.09 | 95 | 1008.5 |
| 20260903145509 | 54 | 153 | 7.8 | 13.9 | 0.05 | 0.53 | 0.09 | 95 | 1008.5 |
| 20260903145006 | 54 | 171 | 7.0 | 13.9 | 0.05 | 0.53 | 0.09 | 95 | 1008.5 |
| 20260903144006 | 54 | 138 | 5.2 | 13.0 | 0.05 | 0.53 | 0.09 | 94 | 1008.5 |
| 20260903143506 | 54 | 168 | 6.1 | 15.6 | 0.05 | 0.53 | 0.09 | 93 | 1008.5 |
| 20260903143006 | 54 | 146 | 7.8 | 15.6 | 0.05 | 0.53 | 0.09 | 93 | 1008.5 |
| 20260903142506 | 54 | 152 | 7.8 | 14.8 | 0.05 | 0.53 | 0.09 | 93 | 1008.5 |
| 20260903142007 | 54 | 137 | 6.1 | 17.4 | 0.00 | 0.48 | 0.05 | 92 | 1008.5 |
| 20260903141507 | 54 | 152 | 9.6 | 17.4 | 0.00 | 0.48 | 0.05 | 92 | 1008.5 |
| 20260903140506 | 54 | 134 | 6.1 | 11.3 | 0.00 | 0.48 | 0.05 | 92 | 1007.5 |
| 20260903140006 | 54 | 137 | 7.8 | 12.2 | 0.00 | 0.48 | 0.05 | 92 | 1007.5 |
| 20260903135506 | 54 | 143 | 7.0 | 12.2 | 0.00 | 0.48 | 0.05 | 92 | 1008.5 |
| 20260903135006 | 54 | 148 | 6.1 | 11.3 | 0.00 | 0.48 | 0.05 | 92 | 1008.5 |
| 20260903134506 | 54 | 148 | 4.3 | 11.3 | 0.00 | 0.48 | 0.05 | 91 | 1008.5 |
| 20260903134006 | 54 | 148 | 5.2 | 13.0 | 0.00 | 0.48 | 0.05 | 91 | 1008.5 |
| 20260903133506 | 54 | 135 | 3.5 | 13.0 | 0.00 | 0.48 | 0.05 | 91 | 1008.5 |
| 20260903133006 | 54 | 140 | 5.2 | 13.0 | 0.00 | 0.48 | 0.05 | 91 | 1008.5 |
| 20260903132506 | 54 | 118 | 6.1 | 11.3 | 0.00 | 0.48 | 0.05 | 91 | 1008.5 |
| 20260903132006 | 55 | 135 | 6.1 | 13.0 | 0.00 | 0.48 | 0.05 | 91 | 1008.5 |
| 20260903131505 | 55 | 148 | 7.8 | 13.0 | 0.00 | 0.48 | 0.05 | 91 | 1008.5 |
| 20260903131006 | 55 | 140 | 7.0 | 14.8 | 0.00 | 0.48 | 0.05 | 91 | 1008.5 |
| 20260903130506 | 55 | 135 | 9.6 | 14.8 | 0.00 | 0.48 | 0.05 | 91 | 1008.5 |
| 20260903125506 | 55 | 137 | 7.8 | 20.0 | 0.00 | 0.48 | 0.05 | 91 | 1007.5 |
| 20260903125006 | 55 | 168 | 10.4 | 20.0 | 0.00 | 0.48 | 0.05 | 92 | 1007.5 |
| 20260903124505 | 55 | 138 | 9.6 | 15.6 | 0.00 | 0.48 | 0.05 | 92 | 1007.5 |
| 20260903124006 | 54 | 125 | 7.8 | 15.6 | 0.00 | 0.48 | 0.05 | 92 | 1008.5 |
| 20260903123506 | 54 | 152 | 9.6 | 15.6 | 0.00 | 0.48 | 0.05 | 92 | 1008.5 |
| 20260903123006 | 54 | 141 | 7.8 | 14.8 | 0.00 | 0.48 | 0.05 | 92 | 1008.5 |
| 20260903122507 | 54 | 148 | 7.8 | 14.8 | 0.00 | 0.48 | 0.05 | 92 | 1008.5 |
| 20260903122006 | 54 | 140 | 9.6 | 14.8 | 0.00 | 0.48 | 0.05 | 92 | 1008.5 |
| 20260903121506 | 54 | 196 | 7.0 | 17.4 | 0.00 | 0.48 | 0.05 | 93 | 1008.5 |
| 20260903121005 | 54 | 151 | 10.4 | 17.4 | 0.00 | 0.48 | 0.05 | 93 | 1008.5 |
| 20260903120506 | 54 | 132 | 9.6 | 13.0 | 0.00 | 0.48 | 0.05 | 93 | 1008.5 |
| 20260903120006 | 54 | 160 | 7.8 | 12.2 | 0.00 | 0.48 | 0.05 | 93 | 1008.5 |
| 20260903115506 | 54 | 148 | 7.0 | 13.0 | 0.00 | 0.48 | 0.05 | 94 | 1007.5 |
| 20260903115005 | 54 | 186 | 7.0 | 13.0 | 0.00 | 0.48 | 0.05 | 94 | 1007.5 |
| 20260903114005 | 54 | 147 | 7.0 | 13.0 | 0.00 | 0.48 | 0.05 | 94 | 1008.5 |
| 20260903113505 | 54 | 151 | 7.8 | 13.0 | 0.00 | 0.48 | 0.05 | 94 | 1008.5 |
| 20260903112506 | 54 | 136 | 9.6 | 14.8 | 0.00 | 0.48 | 0.05 | 95 | 1008.5 |
| 20260903112006 | 54 | 134 | 7.8 | 14.8 | 0.00 | 0.48 | 0.05 | 95 | 1008.5 |
| 20260903111505 | 54 | 140 | 7.8 | 14.8 | 0.00 | 0.48 | 0.05 | 95 | 1008.5 |
| 20260903111005 | 54 | 156 | 5.2 | 17.4 | 0.00 | 0.48 | 0.05 | 95 | 1008.5 |
| 20260903110505 | 54 | 153 | 6.1 | 17.4 | 0.00 | 0.48 | 0.05 | 95 | 1008.5 |
| 20260903110005 | 54 | 147 | 7.8 | 17.4 | 0.00 | 0.48 | 0.05 | 95 | 1008.5 |
| 20260903105506 | 54 | 140 | 7.8 | 13.9 | 0.00 | 0.48 | 0.05 | 95 | 1008.5 |
| 20260903105005 | 54 | 129 | 6.1 | 13.9 | 0.00 | 0.48 | 0.05 | 95 | 1008.5 |
| 20260903104506 | 54 | 166 | 5.2 | 18.2 | 0.00 | 0.48 | 0.05 | 95 | 1008.5 |
| 20260903104006 | 54 | 135 | 9.6 | 18.2 | 0.00 | 0.48 | 0.05 | 95 | 1008.5 |
| 20260903103506 | 54 | 146 | 4.3 | 15.6 | 0.00 | 0.48 | 0.05 | 95 | 1008.5 |
| 20260903102506 | 54 | 131 | 8.7 | 18.2 | 0.00 | 0.48 | 0.05 | 96 | 1008.5 |
| 20260903101505 | 54 | 154 | 7.8 | 18.2 | 0.00 | 0.48 | 0.05 | 96 | 1008.5 |
| 20260903100006 | 54 | 122 | 5.2 | 13.0 | 0.00 | 0.48 | 0.05 | 97 | 1008.5 |
| 20260903095006 | 54 | 147 | 7.0 | 13.9 | 0.00 | 0.48 | 0.05 | 97 | 1008.5 |
| 20260903094506 | 54 | 151 | 6.1 | 14.8 | 0.00 | 0.48 | 0.05 | 97 | 1008.5 |
| 20260903094006 | 54 | 135 | 7.0 | 14.8 | 0.00 | 0.48 | 0.05 | 97 | 1008.5 |
| 20260903093006 | 54 | 144 | 6.1 | 13.9 | 0.00 | 0.48 | 0.05 | 98 | 1008.5 |
| 20260903092505 | 54 | 145 | 6.1 | 13.9 | 0.00 | 0.48 | 0.05 | 98 | 1008.5 |
| 20260903092006 | 54 | 145 | 2.6 | 11.3 | 0.00 | 0.48 | 0.05 | 98 | 1008.5 |
| 20260903091505 | 54 | 125 | 5.2 | 11.3 | 0.00 | 0.48 | 0.05 | 98 | 1008.5 |
| 20260903091006 | 54 | 150 | 5.2 | 17.4 | 0.00 | 0.48 | 0.05 | 98 | 1008.5 |
| 20260903090506 | 54 | 161 | 7.0 | 17.4 | 0.00 | 0.48 | 0.05 | 98 | 1008.5 |
| 20260903090005 | 54 | 148 | 3.5 | 8.7 | 0.00 | 0.48 | 0.05 | 98 | 1008.5 |
| 20260903085505 | 54 | 132 | 2.6 | 7.8 | 0.00 | 0.48 | 0.05 | 98 | 1008.5 |
| 20260903085005 | 54 | 145 | 4.3 | 8.7 | 0.00 | 0.48 | 0.05 | 97 | 1008.5 |
| 20260903084506 | 54 | 142 | 2.6 | 8.7 | 0.05 | 0.48 | 0.05 | 98 | 1008.5 |
| 20260903084005 | 55 | 146 | 2.6 | 8.7 | 0.05 | 0.48 | 0.05 | 98 | 1008.5 |
| 20260903083505 | 54 | 149 | 2.6 | 19.1 | 0.05 | 0.48 | 0.05 | 98 | 1008.5 |
| 20260903083005 | 55 | 146 | 6.1 | 19.1 | 0.05 | 0.48 | 0.05 | 98 | 1008.5 |
| 20260903082505 | 54 | 163 | 5.2 | 13.0 | 0.05 | 0.48 | 0.05 | 98 | 1008.5 |
| 20260903082007 | 54 | 146 | 7.8 | 13.0 | 0.05 | 0.48 | 0.05 | 98 | 1008.5 |
| 20260903081005 | 54 | 143 | 4.3 | 13.0 | 0.05 | 0.48 | 0.05 | 98 | 1008.5 |
| 20260903080505 | 55 | 138 | 7.8 | 13.0 | 0.05 | 0.48 | 0.05 | 98 | 1008.5 |
| 20260903080005 | 55 | 154 | 3.5 | 11.3 | 0.05 | 0.48 | 0.05 | 98 | 1008.5 |
| 20260903075505 | 55 | 132 | 5.2 | 13.0 | 0.05 | 0.48 | 0.05 | 98 | 1009.5 |
| 20260903075005 | 55 | 166 | 4.3 | 13.0 | 0.05 | 0.48 | 0.05 | 98 | 1009.5 |
| 20260903074505 | 55 | 145 | 6.1 | 13.0 | 0.00 | 0.44 | 0.00 | 98 | 1009.5 |
| 20260903074006 | 55 | 202 | 6.1 | 13.0 | 0.00 | 0.44 | 0.00 | 98 | 1008.5 |
| 20260903073505 | 55 | 136 | 5.2 | 12.2 | 0.00 | 0.44 | 0.00 | 98 | 1008.5 |
| 20260903073005 | 55 | 159 | 8.7 | 18.2 | 0.00 | 0.44 | 0.00 | 98 | 1008.5 |
| 20260903071005 | 55 | 134 | 8.7 | 20.9 | 0.00 | 0.44 | 0.00 | 98 | 1008.5 |
| 20260903070506 | 55 | 137 | 7.8 | 19.1 | 0.00 | 0.44 | 0.00 | 98 | 1008.5 |
| 20260903070006 | 55 | 154 | 7.8 | 20.0 | 0.00 | 0.44 | 0.00 | 98 | 1008.5 |
| 20260903065505 | 55 | 152 | 7.8 | 20.0 | 0.00 | 0.44 | 0.44 | 98 | 1008.5 |
| 20260903065005 | 55 | 140 | 6.1 | 18.2 | 0.00 | 0.44 | 0.44 | 98 | 1008.5 |
| 20260903064505 | 55 | 141 | 7.8 | 22.6 | 0.00 | 0.44 | 0.44 | 97 | 1008.5 |
| 20260903064005 | 55 | 169 | 8.7 | 22.6 | 0.00 | 0.44 | 0.44 | 97 | 1008.5 |
| 20260903063505 | 55 | 165 | 8.7 | 15.6 | 0.00 | 0.44 | 0.44 | 97 | 1008.5 |
| 20260903063005 | 55 | 199 | 6.1 | 13.0 | 0.00 | 0.44 | 0.44 | 96 | 1008.5 |
| 20260903062505 | 55 | 203 | 6.1 | 11.3 | 0.00 | 0.44 | 0.44 | 96 | 1008.5 |
| 20260903062005 | 55 | 194 | 5.2 | 13.0 | 0.00 | 0.44 | 0.44 | 96 | 1008.5 |
| 20260903061505 | 55 | 183 | 6.1 | 18.2 | 0.00 | 0.44 | 0.44 | 96 | 1008.5 |
| 20260903061005 | 56 | 163 | 7.8 | 18.2 | 0.00 | 0.44 | 0.44 | 96 | 1008.5 |
| 20260903060505 | 55 | 169 | 6.1 | 15.6 | 0.00 | 0.44 | 0.44 | 96 | 1008.5 |
| 20260903060005 | 55 | 197 | 5.2 | 26.9 | 0.00 | 0.44 | 0.44 | 97 | 1008.5 |
| 20260903055504 | 55 | 178 | 8.7 | 26.9 | 0.00 | 0.44 | 0.44 | 97 | 1008.5 |
| 20260903055005 | 55 | 166 | 7.0 | 13.9 | 0.00 | 0.44 | 0.44 | 97 | 1008.5 |
| 20260903054505 | 55 | 190 | 6.1 | 11.3 | 0.00 | 0.44 | 0.44 | 97 | 1008.5 |
| 20260903053504 | 55 | 217 | 4.3 | 10.4 | 0.00 | 0.44 | 0.44 | 97 | 1008.5 |
| 20260903052505 | 55 | 199 | 1.7 | 8.7 | 0.00 | 0.44 | 0.44 | 97 | 1008.5 |
| 20260903051504 | 55 | 205 | 1.7 | 7.0 | 0.00 | 0.44 | 0.44 | 97 | 1008.5 |
| 20260903051004 | 55 | 208 | 2.6 | 7.0 | 0.00 | 0.44 | 0.44 | 97 | 1008.5 |
| 20260903045004 | 56 | 192 | 2.6 | 6.1 | 0.00 | 0.44 | 0.44 | 97 | 1008.5 |
| 20260903044505 | 56 | 192 | 1.7 | 7.8 | 0.00 | 0.44 | 0.44 | 97 | 1008.5 |
| 20260903044005 | 56 | 194 | 1.7 | 7.8 | 0.00 | 0.44 | 0.44 | 97 | 1008.5 |
| 20260903043505 | 56 | 185 | 4.3 | 11.3 | 0.00 | 0.44 | 0.44 | 97 | 1008.5 |
| 20260903043005 | 56 | 192 | 4.3 | 13.9 | 0.00 | 0.44 | 0.44 | 97 | 1008.5 |
| 20260903042505 | 56 | 127 | 2.6 | 13.9 | 0.00 | 0.44 | 0.44 | 97 | 1007.5 |
| 20260903042004 | 56 | 202 | 6.1 | 13.0 | 0.00 | 0.44 | 0.44 | 97 | 1007.5 |
| 20260903041504 | 56 | 159 | 5.2 | 13.0 | 0.00 | 0.44 | 0.44 | 97 | 1007.5 |
| 20260903041005 | 56 | 150 | 7.8 | 13.0 | 0.00 | 0.44 | 0.44 | 97 | 1008.5 |
| 20260903040008 | 56 | 143 | 7.8 | 15.6 | 0.00 | 0.44 | 0.44 | 98 | 1008.5 |
| 20260903035504 | 56 | 172 | 7.8 | 14.8 | 0.00 | 0.44 | 0.44 | 98 | 1008.5 |
| 20260903035005 | 56 | 149 | 7.0 | 14.8 | 0.00 | 0.44 | 0.44 | 98 | 1008.5 |
| 20260903034505 | 56 | 167 | 5.2 | 14.8 | 0.00 | 0.44 | 0.44 | 98 | 1008.5 |
| 20260903033504 | 56 | 153 | 7.0 | 17.4 | 0.00 | 0.44 | 0.44 | 98 | 1008.5 |
| 20260903033005 | 56 | 154 | 8.7 | 17.4 | 0.00 | 0.44 | 0.44 | 98 | 1008.5 |
| 20260903032005 | 57 | 152 | 4.3 | 13.0 | 0.00 | 0.44 | 0.44 | 98 | 1008.5 |
| 20260903031505 | 57 | 156 | 6.1 | 13.9 | 0.00 | 0.44 | 0.44 | 98 | 1008.5 |
| 20260903031004 | 57 | 138 | 8.7 | 13.9 | 0.00 | 0.44 | 0.44 | 98 | 1008.5 |
| 20260903030505 | 57 | 168 | 7.8 | 13.0 | 0.00 | 0.44 | 0.44 | 98 | 1008.5 |
| 20260903030005 | 57 | 154 | 6.1 | 14.8 | 0.00 | 0.44 | 0.44 | 98 | 1008.5 |
| 20260903025505 | 57 | 141 | 6.1 | 14.8 | 0.00 | 0.44 | 0.44 | 98 | 1008.5 |
| 20260903025005 | 57 | 144 | 6.1 | 13.0 | 0.00 | 0.44 | 0.44 | 98 | 1008.5 |
| 20260903024504 | 57 | 146 | 7.8 | 14.8 | 0.00 | 0.44 | 0.44 | 98 | 1008.5 |
| 20260903024004 | 57 | 197 | 7.8 | 14.8 | 0.00 | 0.44 | 0.44 | 98 | 1008.5 |
| 20260903023505 | 57 | 161 | 9.6 | 17.4 | 0.00 | 0.44 | 0.44 | 98 | 1008.5 |
| 20260903023005 | 57 | 214 | 8.7 | 17.4 | 0.00 | 0.44 | 0.44 | 98 | 1008.5 |
| 20260903022505 | 57 | 181 | 10.4 | 17.4 | 0.00 | 0.44 | 0.44 | 98 | 1007.5 |
| 20260903022007 | 57 | 145 | 7.8 | 13.0 | 0.00 | 0.44 | 0.44 | 98 | 1007.5 |
| 20260903021505 | 57 | 215 | 1.7 | 1.7 | 0.00 | 0.44 | 0.44 | 98 | 1007.5 |
| 20260903021005 | 57 | 215 | 1.7 | 1.7 | 0.00 | 0.44 | 0.44 | 98 | 1007.5 |
| 20260903020504 | 57 | 215 | 1.7 | 1.7 | 0.00 | 0.44 | 0.44 | 98 | 1007.5 |
| 20260903020004 | 57 | 215 | 1.7 | 1.7 | 0.00 | 0.44 | 0.44 | 98 | 1007.5 |
| 20260903015504 | 57 | 215 | 1.7 | 1.7 | 0.00 | 0.44 | 0.44 | 98 | 1006.5 |
| 20260903014504 | 57 | 215 | 1.7 | 1.7 | 0.00 | 0.44 | 0.44 | 98 | 1006.5 |
| 20260903014004 | 57 | 215 | 1.7 | 1.7 | 0.00 | 0.44 | 0.44 | 98 | 1007.5 |
| 20260903013504 | 57 | 215 | 1.7 | 1.7 | 0.00 | 0.44 | 0.44 | 98 | 1007.5 |
| 20260903013004 | 57 | 215 | 1.7 | 1.7 | 0.00 | 0.44 | 0.44 | 98 | 1007.5 |
| 20260903012505 | 58 | 215 | 1.7 | 1.7 | 0.00 | 0.44 | 0.44 | 98 | 1006.5 |
| 20260903012004 | 58 | 215 | 1.7 | 1.7 | 0.00 | 0.44 | 0.44 | 98 | 1006.5 |
| 20260903011505 | 57 | 215 | 1.7 | 1.7 | 0.00 | 0.44 | 0.44 | 98 | 1006.5 |
| 20260903011004 | 57 | 215 | 1.7 | 1.7 | 0.00 | 0.44 | 0.44 | 98 | 1006.5 |
| 20260903010504 | 57 | 215 | 1.7 | 1.7 | 0.00 | 0.44 | 0.44 | 98 | 1006.5 |
| 20260903005504 | 57 | 215 | 1.7 | 1.7 | 0.00 | 0.44 | 0.44 | 98 | 1006.5 |
| 20260903005005 | 57 | 215 | 1.7 | 1.7 | 0.06 | 0.44 | 0.44 | 97 | 1006.5 |
| 20260903004004 | 57 | 215 | 1.7 | 1.7 | 0.10 | 0.44 | 0.44 | 97 | 1006.5 |
| 20260903003504 | 57 | 215 | 1.7 | 1.7 | 0.10 | 0.44 | 0.44 | 97 | 1006.5 |
| 20260903003004 | 57 | 215 | 1.7 | 1.7 | 0.10 | 0.44 | 0.44 | 98 | 1006.5 |
| 20260903002004 | 57 | 215 | 1.7 | 1.7 | 0.15 | 0.44 | 0.44 | 97 | 1006.5 |
| 20260903001004 | 57 | 215 | 1.7 | 1.7 | 0.15 | 0.44 | 0.44 | 97 | 1006.5 |
| 20260903000504 | 57 | 215 | 1.7 | 1.7 | 0.15 | 0.44 | 0.44 | 97 | 1006.5 |
| 20260903000004 | 57 | 215 | 1.7 | 1.7 | 0.15 | 0.44 | 0.44 | 97 | 1006.5 |
| 20260902235504 | 57 | 215 | 1.7 | 1.7 | 0.15 | 0.44 | 0.44 | 96 | 1006.5 |
| 20260902235004 | 57 | 215 | 1.7 | 1.7 | 0.09 | 0.38 | 0.38 | 96 | 1006.5 |
| 20260902234504 | 57 | 215 | 1.7 | 1.7 | 0.09 | 0.38 | 0.38 | 96 | 1006.5 |
| 20260902234004 | 57 | 215 | 1.7 | 1.7 | 0.05 | 0.34 | 0.34 | 96 | 1006.5 |
| 20260902233004 | 58 | 215 | 1.7 | 1.7 | 0.05 | 0.34 | 0.34 | 96 | 1006.5 |
| 20260902232503 | 58 | 215 | 1.7 | 1.7 | 0.00 | 0.29 | 0.29 | 96 | 1006.5 |
| 20260902232004 | 58 | 215 | 1.7 | 1.7 | 0.00 | 0.29 | 0.29 | 96 | 1006.5 |
| 20260902231004 | 58 | 215 | 1.7 | 1.7 | 0.00 | 0.29 | 0.29 | 95 | 1006.5 |
| 20260902230504 | 58 | 215 | 1.7 | 1.7 | 0.00 | 0.29 | 0.29 | 95 | 1006.5 |
| 20260902230005 | 58 | 215 | 1.7 | 1.7 | 0.00 | 0.29 | 0.29 | 95 | 1006.5 |
| 20260902225504 | 58 | 215 | 1.7 | 1.7 | 0.00 | 0.29 | 0.29 | 95 | 1006.5 |
| 20260902225004 | 58 | 215 | 1.7 | 1.7 | 0.00 | 0.29 | 0.29 | 94 | 1006.5 |
| 20260902224504 | 58 | 215 | 1.7 | 1.7 | 0.00 | 0.29 | 0.29 | 94 | 1006.5 |
| 20260902223504 | 58 | 215 | 1.7 | 1.7 | 0.00 | 0.29 | 0.29 | 94 | 1006.5 |
| 20260902223003 | 58 | 215 | 1.7 | 1.7 | 0.00 | 0.29 | 0.29 | 95 | 1006.5 |
| 20260902222504 | 58 | 215 | 1.7 | 1.7 | 0.00 | 0.29 | 0.29 | 95 | 1006.5 |
| 20260902222004 | 58 | 215 | 1.7 | 1.7 | 0.00 | 0.29 | 0.29 | 95 | 1006.5 |
| 20260902221504 | 58 | 215 | 1.7 | 1.7 | 0.00 | 0.29 | 0.29 | 94 | 1006.5 |
| 20260902221004 | 58 | 215 | 1.7 | 1.7 | 0.00 | 0.29 | 0.29 | 94 | 1006.5 |
| 20260902220504 | 58 | 215 | 1.7 | 1.7 | 0.00 | 0.29 | 0.29 | 94 | 1006.5 |
| 20260902220004 | 58 | 215 | 1.7 | 1.7 | 0.00 | 0.29 | 0.29 | 94 | 1006.5 |
| 20260902215504 | 58 | 215 | 1.7 | 1.7 | 0.00 | 0.29 | 0.29 | 94 | 1006.5 |
| 20260902215004 | 58 | 215 | 1.7 | 1.7 | 0.00 | 0.29 | 0.29 | 94 | 1006.5 |
| 20260902214003 | 58 | 215 | 1.7 | 1.7 | 0.00 | 0.29 | 0.29 | 94 | 1006.5 |
| 20260902213504 | 58 | 215 | 1.7 | 1.7 | 0.00 | 0.29 | 0.29 | 94 | 1006.5 |
| 20260902213003 | 58 | 215 | 1.7 | 1.7 | 0.00 | 0.29 | 0.29 | 94 | 1006.5 |
| 20260902212504 | 58 | 215 | 1.7 | 1.7 | 0.00 | 0.29 | 0.29 | 94 | 1006.5 |
| 20260902212004 | 58 | 215 | 1.7 | 1.7 | 0.05 | 0.29 | 0.29 | 94 | 1006.5 |
| 20260902211504 | 58 | 215 | 1.7 | 1.7 | 0.05 | 0.29 | 0.29 | 94 | 1006.5 |
| 20260902211004 | 58 | 215 | 1.7 | 1.7 | 0.05 | 0.29 | 0.29 | 94 | 1006.5 |
| 20260902210504 | 58 | 215 | 1.7 | 1.7 | 0.05 | 0.29 | 0.29 | 94 | 1006.5 |
| 20260902210004 | 57 | 215 | 1.7 | 1.7 | 0.10 | 0.29 | 0.29 | 94 | 1006.5 |
| 20260902205503 | 57 | 215 | 1.7 | 1.7 | 0.10 | 0.29 | 0.29 | 93 | 1006.5 |
| 20260902205004 | 57 | 215 | 1.7 | 1.7 | 0.10 | 0.29 | 0.29 | 93 | 1006.5 |
| 20260902204504 | 57 | 215 | 1.7 | 1.7 | 0.14 | 0.29 | 0.29 | 93 | 1006.5 |
| 20260902204004 | 57 | 215 | 1.7 | 1.7 | 0.14 | 0.29 | 0.29 | 93 | 1006.5 |
| 20260902203504 | 57 | 215 | 1.7 | 1.7 | 0.20 | 0.29 | 0.29 | 93 | 1006.5 |
| 20260902203004 | 57 | 215 | 1.7 | 1.7 | 0.20 | 0.29 | 0.29 | 93 | 1006.5 |
| 20260902202504 | 57 | 215 | 1.7 | 1.7 | 0.20 | 0.29 | 0.29 | 93 | 1005.5 |
| 20260902202004 | 57 | 215 | 1.7 | 1.7 | 0.15 | 0.24 | 0.24 | 93 | 1005.5 |
| 20260902201507 | 57 | 215 | 1.7 | 1.7 | 0.15 | 0.24 | 0.24 | 92 | 1005.5 |
| 20260902201007 | 57 | 215 | 1.7 | 1.7 | 0.19 | 0.24 | 0.24 | 92 | 1006.5 |
| 20260902200507 | 57 | 215 | 1.7 | 1.7 | 0.19 | 0.24 | 0.24 | 92 | 1006.5 |
| 20260902200006 | 57 | 215 | 1.7 | 1.7 | 0.15 | 0.19 | 0.19 | 92 | 1006.5 |
| 20260902195506 | 57 | 215 | 1.7 | 1.7 | 0.15 | 0.19 | 0.19 | 91 | 1006.5 |
| 20260902195006 | 57 | 215 | 1.7 | 1.7 | 0.15 | 0.19 | 0.19 | 91 | 1006.5 |
| 20260902194507 | 58 | 215 | 1.7 | 1.7 | 0.10 | 0.15 | 0.15 | 91 | 1006.5 |
| 20260902193506 | 58 | 215 | 1.7 | 1.7 | 0.05 | 0.09 | 0.09 | 90 | 1006.5 |
| 20260902193007 | 58 | 215 | 1.7 | 1.7 | 0.05 | 0.09 | 0.09 | 89 | 1006.5 |
| 20260902192507 | 58 | 215 | 1.7 | 1.7 | 0.05 | 0.09 | 0.09 | 89 | 1006.5 |
| 20260902192006 | 58 | 215 | 1.7 | 1.7 | 0.09 | 0.09 | 0.09 | 89 | 1006.5 |
| 20260902191507 | 58 | 215 | 1.7 | 1.7 | 0.09 | 0.09 | 0.09 | 89 | 1006.5 |
| 20260902191007 | 58 | 215 | 1.7 | 1.7 | 0.05 | 0.05 | 0.05 | 88 | 1006.5 |
| 20260902190507 | 58 | 215 | 1.7 | 1.7 | 0.05 | 0.05 | 0.05 | 88 | 1006.5 |
| 20260902190006 | 58 | 215 | 1.7 | 1.7 | 0.05 | 0.05 | 0.05 | 88 | 1006.5 |
| 20260902185507 | 58 | 215 | 1.7 | 1.7 | 0.05 | 0.05 | 0.05 | 88 | 1006.5 |
| 20260902185007 | 58 | 215 | 1.7 | 1.7 | 0.05 | 0.05 | 0.05 | 88 | 1006.5 |
| 20260902184506 | 58 | 215 | 1.7 | 1.7 | 0.05 | 0.05 | 0.05 | 87 | 1006.5 |